Date String (YYYY-MM-DD hh:mm:ss) UTC,Instrument flags,Ambient pressure (hPa),Sample flow (lpm),Bypass flow (lpm),Sample temperature (°C),Ambient temperature (°C),ASC tube jacket temperature (°C),LED temperature (°C),Box temperature (°C),Sample RH (%),Span deviation,Mass concentration (μg/m³),Mass concentration (μg/m³),Mass concentration (μg/m³)
DateTimeUTC,F1_M11,P_M11,Q1_M11,Q2_M11,T1_M11,T2_M11,T3_M11,T4_M11,T5_M11,U1_M11,ZSPAN_M11,X0_M11,X2_M11,X1_M11
2022-07-10 08:00:00,,0830.0,5.00,0.00,29.6,28.2,00.0,38.3,31.5,14.7,0000.0,0009.35,0003.29,0002.68
2022-07-10 08:01:00,,0829.9,5.00,0.00,29.6,28.3,00.0,38.4,31.5,14.5,0000.0,0009.64,0003.29,0002.67
2022-07-10 08:02:00,,0829.9,5.00,0.00,29.6,28.4,00.0,38.4,31.5,14.4,0000.0,0009.86,0003.29,0002.65
2022-07-10 08:03:00,,0829.9,4.99,0.00,29.7,28.5,00.0,38.4,31.6,14.6,0000.0,0009.74,0003.31,0002.63
2022-07-10 08:04:00,,0829.9,5.00,0.00,29.7,28.6,00.0,38.4,31.7,14.5,0000.0,0010.31,0003.31,0002.64
2022-07-10 08:05:00,,0829.8,5.00,0.00,29.7,28.7,00.0,38.4,31.7,14.3,0000.0,0010.63,0003.30,0002.64
2022-07-10 08:06:00,,0829.8,5.00,0.00,29.7,28.3,00.0,38.4,31.6,14.4,0000.0,0009.98,0003.28,0002.64
2022-07-10 08:07:00,,0829.9,5.00,0.00,29.7,27.7,00.0,38.3,31.5,14.6,0000.0,0009.47,0003.29,0002.65
2022-07-10 08:08:00,,0829.8,5.00,0.00,29.7,27.6,00.0,38.4,31.5,14.6,0000.0,0008.86,0003.31,0002.66
2022-07-10 08:09:00,,0829.9,4.99,0.00,29.6,27.6,00.0,38.3,31.4,14.7,0000.0,0008.96,0003.31,0002.65
2022-07-10 08:10:00,,0829.9,5.00,0.00,29.6,27.7,00.0,38.3,31.4,14.7,0000.0,0009.09,0003.33,0002.63
2022-07-10 08:11:00,,0829.9,5.00,0.00,29.6,27.8,00.0,38.3,31.3,14.7,0000.0,0009.16,0003.37,0002.63
2022-07-10 08:12:00,,0829.8,5.00,0.00,29.6,28.0,00.0,38.4,31.4,14.7,0000.0,0009.45,0003.41,0002.66
2022-07-10 08:13:00,,0829.8,5.00,0.00,29.6,28.1,00.0,38.4,31.4,14.8,0000.0,0009.05,0003.43,0002.68
2022-07-10 08:14:00,,0829.8,5.00,0.00,29.6,28.2,00.0,38.4,31.5,14.8,0000.0,0008.90,0003.42,0002.70
2022-07-10 08:15:00,,0829.8,4.99,0.00,29.6,28.3,00.0,38.4,31.5,14.7,0000.0,0008.36,0003.42,0002.69
2022-07-10 08:16:00,,0829.8,5.00,0.00,29.7,28.4,00.0,38.4,31.6,14.8,0000.0,0007.39,0003.43,0002.68
2022-07-10 08:17:00,,0829.8,5.01,0.00,29.7,28.5,00.0,38.4,31.6,14.7,0000.0,0007.12,0003.43,0002.69
2022-07-10 08:18:00,,0829.8,5.00,0.00,29.7,28.6,00.0,38.4,31.6,14.7,0000.0,0007.05,0003.40,0002.68
2022-07-10 08:19:00,,0829.8,5.00,0.00,29.8,28.7,00.0,38.5,31.7,14.6,0000.0,0007.57,0003.39,0002.67
2022-07-10 08:20:00,,0829.7,4.99,0.00,29.8,28.2,00.0,38.4,31.6,14.7,0000.0,0007.54,0003.36,0002.68
2022-07-10 08:21:00,,0829.7,4.99,0.00,29.7,27.2,00.0,38.3,31.4,14.8,0000.0,0007.43,0003.33,0002.69
2022-07-10 08:22:00,,0829.7,5.00,0.00,29.6,26.9,00.0,38.3,31.3,14.9,0000.0,0007.46,0003.30,0002.68
2022-07-10 08:23:00,,0829.7,5.00,0.00,29.5,26.9,00.0,38.3,31.2,14.8,0000.0,0006.89,0003.26,0002.66
2022-07-10 08:24:00,,0829.7,5.00,0.00,29.5,27.0,00.0,38.3,31.2,14.9,0000.0,0006.72,0003.24,0002.63
2022-07-10 08:25:00,,0829.7,5.01,0.00,29.4,27.2,00.0,38.3,31.2,14.9,0000.0,0006.84,0003.25,0002.63
2022-07-10 08:26:00,,0829.7,5.00,0.00,29.4,27.4,00.0,38.3,31.2,15.0,0000.0,0006.59,0003.23,0002.62
2022-07-10 08:27:00,,0829.7,4.99,0.00,29.4,27.6,00.0,38.3,31.2,15.1,0000.0,0006.55,0003.21,0002.62
2022-07-10 08:28:00,,0829.7,5.01,0.00,29.4,27.7,00.0,38.3,31.3,15.1,0000.0,0006.88,0003.25,0002.62
2022-07-10 08:29:00,,0829.7,5.00,0.00,29.5,27.9,00.0,38.3,31.3,15.1,0000.0,0007.67,0003.29,0002.62
2022-07-10 08:30:00,,0829.7,5.00,0.00,29.5,28.0,00.0,38.3,31.3,15.1,0000.0,0007.53,0003.31,0002.61
2022-07-10 08:31:00,,0829.7,4.99,0.00,29.5,28.2,00.0,38.3,31.4,15.0,0000.0,0007.25,0003.32,0002.59
2022-07-10 08:32:00,,0829.6,5.00,0.00,29.5,28.3,00.0,38.3,31.4,15.0,0000.0,0007.27,0003.31,0002.59
2022-07-10 08:33:00,,0829.6,4.99,0.00,29.5,28.4,00.0,38.3,31.4,15.0,0000.0,0007.33,0003.31,0002.59
2022-07-10 08:34:00,,0829.6,5.00,0.00,29.6,28.4,00.0,38.3,31.5,15.1,0000.0,0007.41,0003.33,0002.60
2022-07-10 08:35:00,,0829.6,5.00,0.00,29.6,28.5,00.0,38.3,31.5,15.1,0000.0,0007.80,0003.32,0002.61
2022-07-10 08:36:00,,0829.6,5.01,0.00,29.6,28.6,00.0,38.3,31.6,15.1,0000.0,0008.19,0003.32,0002.61
2022-07-10 08:37:00,,0829.6,5.00,0.00,29.7,28.6,00.0,38.4,31.6,15.0,0000.0,0008.16,0003.31,0002.61
2022-07-10 08:38:00,,0829.6,5.00,0.00,29.7,28.7,00.0,38.4,31.6,15.0,0000.0,0008.20,0003.34,0002.62
2022-07-10 08:39:00,,0829.9,4.99,0.00,29.7,28.3,00.0,38.4,31.6,14.8,0000.0,0008.08,0003.32,0002.63
2022-07-10 08:40:00,,0829.6,5.00,0.00,29.7,27.6,00.0,38.3,31.5,14.8,0000.0,0007.77,0003.30,0002.63
2022-07-10 08:41:00,,0829.6,5.01,0.00,29.7,27.5,00.0,38.3,31.5,14.8,0000.0,0007.17,0003.27,0002.63
2022-07-10 08:42:00,,0829.6,5.01,0.00,29.6,27.5,00.0,38.3,31.4,14.9,0000.0,0007.09,0003.26,0002.64
2022-07-10 08:43:00,,0829.6,5.00,0.00,29.6,27.6,00.0,38.3,31.4,15.0,0000.0,0007.22,0003.27,0002.64
2022-07-10 08:44:00,,0829.6,4.99,0.00,29.6,27.8,00.0,38.3,31.4,15.0,0000.0,0006.91,0003.27,0002.65
2022-07-10 08:45:00,,0829.6,5.00,0.00,29.6,27.9,00.0,38.3,31.4,15.1,0000.0,0006.93,0003.28,0002.66
2022-07-10 08:46:00,,0829.6,5.00,0.00,29.6,28.0,00.0,38.3,31.4,15.1,0000.0,0006.19,0003.27,0002.66
2022-07-10 08:47:00,,0829.7,5.00,0.00,29.6,28.2,00.0,38.3,31.4,15.1,0000.0,0005.35,0003.27,0002.66
2022-07-10 08:48:00,,0829.7,5.00,0.00,29.6,28.3,00.0,38.3,31.5,15.1,0000.0,0005.84,0003.26,0002.65
2022-07-10 08:49:00,,0829.7,5.00,0.00,29.6,28.4,00.0,38.4,31.5,15.1,0000.0,0005.87,0003.24,0002.66
2022-07-10 08:50:00,,0829.7,4.99,0.00,29.7,28.5,00.0,38.4,31.5,15.0,0000.0,0006.22,0003.26,0002.67
2022-07-10 08:51:00,,0829.7,5.01,0.00,29.7,28.5,00.0,38.4,31.6,15.0,0000.0,0006.25,0003.23,0002.66
2022-07-10 08:52:00,,0829.7,5.01,0.00,29.7,28.6,00.0,38.4,31.6,15.0,0000.0,0006.10,0003.22,0002.65
2022-07-10 08:53:00,,0829.7,4.99,0.00,29.7,28.7,00.0,38.4,31.7,14.9,0000.0,0006.23,0003.23,0002.66
2022-07-10 08:54:00,,0829.7,4.99,0.00,29.8,28.6,00.0,38.4,31.7,14.8,0000.0,0006.18,0003.24,0002.67
2022-07-10 08:55:00,,0829.7,5.01,0.00,29.8,27.8,00.0,38.4,31.6,14.8,0000.0,0006.20,0003.24,0002.67
2022-07-10 08:56:00,,0829.7,5.01,0.00,29.7,27.1,00.0,38.3,31.4,15.0,0000.0,0006.21,0003.24,0002.67
2022-07-10 08:57:00,,0829.7,5.01,0.00,29.6,26.9,00.0,38.3,31.3,15.1,0000.0,0006.47,0003.23,0002.67
2022-07-10 08:58:00,,0829.6,5.00,0.00,29.5,27.0,00.0,38.3,31.2,15.1,0000.0,0007.11,0003.22,0002.68
2022-07-10 08:59:00,,0829.6,4.99,0.00,29.5,27.1,00.0,38.3,31.2,15.2,0000.0,0006.75,0003.23,0002.68
